Weather History for KPOU - January, 2013

Change the Weather History Date:

Tuesday, January 8, 2013

  Actual Average Record
Temperature  
Mean Temperature 31 °F 26 °F  
Max Temperature 46 °F 35 °F 63 °F (2008)
Min Temperature 16 °F 16 °F -7 °F (1968)
Degree Days  
Heating Degree Days 34 39  
Month to date heating degree days 308 312  
Since 1 July heating degree days 2358 2641  
Cooling Degree Days 0 0  
Month to date cooling degree days 0 0  
Year to date cooling degree days 0 0  
Moisture  
Dew Point 20 °F    
Average Humidity 67    
Maximum Humidity 92    
Minimum Humidity 42    
Precipitation  
Precipitation 0.00 in 0.10 in 0.82 in (1979)
Month to date precipitation T 0.82  
Year to date precipitation T 0.82  
Sea Level Pressure  
Sea Level Pressure 30.34 in    
Wind  
Wind Speed 3 mph (SSW)    
Max Wind Speed 13 mph    
Max Gust Speed 18 mph    
Visibility 9 miles    
Events      
T = Trace of Precipitation, MM = Missing Value Source: NWS Daily Summary

Daily Weather History Graph

Daily Weather History Graph

Search for Another Location

Airport or City:

Trip Planner

Search our weather history database for the weather conditions in past years. The results will help you decide how hot, cold, wet, or windy it might be!

Date:

Astronomy

Jan. 08, 2013 Rise Set
Actual Time 7:22 AM EST 4:42 PM EST
Civil Twilight 6:51 AM EST 5:13 PM EST
Nautical Twilight 6:16 AM EST 5:48 PM EST
Astronomical Twilight 5:42 AM EST 6:22 PM EST
Moon 3:51 AM EST (1/8) 1:42 PM EST (1/8)
Length of Visible Light 10h 22m
Length of Day
9h 20m
Waning Crescent, 14% of the Moon is Illuminated
Jan 8
Waning Crescent
Jan 11
New
Jan 18
First Quarter
Jan 26
Full
Feb 3
Last Quarter

Hourly Weather History & Observations

Time (EST) Temp. Windchill Dew Point Humidity Pressure Visibility Wind Dir Wind Speed Gust Speed Precip Events Conditions
12:53 AM 19.0 °F - 14.0 °F 81% 30.36 in 8.0 mi Calm Calm - N/A   Clear
1:53 AM 18.0 °F - 14.0 °F 84% 30.35 in 9.0 mi Calm Calm - N/A   Clear
2:53 AM 19.0 °F - 15.1 °F 85% 30.34 in 8.0 mi Calm Calm - N/A   Clear
3:53 AM 17.1 °F - 12.0 °F 81% 30.33 in 8.0 mi Calm Calm - N/A   Clear
4:53 AM 18.0 °F 12.7 °F 12.0 °F 78% 30.33 in 9.0 mi SE 3.5 mph - N/A   Clear
5:53 AM 18.0 °F - 15.1 °F 88% 30.34 in 8.0 mi Calm Calm - N/A   Clear
6:53 AM 18.0 °F 12.7 °F 12.9 °F 81% 30.37 in 7.0 mi SE 3.5 mph - N/A   Clear
7:53 AM 19.9 °F - 16.0 °F 85% 30.38 in 6.0 mi Calm Calm - N/A   Clear
8:53 AM 23.0 °F - 19.0 °F 85% 30.38 in 7.0 mi Calm Calm - N/A   Clear
9:53 AM 32.0 °F - 24.1 °F 73% 30.39 in 8.0 mi Calm Calm - N/A   Clear
10:53 AM 39.0 °F 32.8 °F 24.1 °F 55% 30.36 in 10.0 mi SW 9.2 mph - N/A   Clear
11:53 AM 42.1 °F 36.1 °F 25.0 °F 51% 30.33 in 10.0 mi SW 10.4 mph - N/A   Clear
12:53 PM 43.0 °F 38.2 °F 25.0 °F 49% 30.31 in 10.0 mi SW 8.1 mph - N/A   Clear
1:53 PM 45.0 °F 41.2 °F 24.1 °F 44% 30.30 in 10.0 mi SW 6.9 mph - N/A   Clear
2:53 PM 46.0 °F 42.5 °F 24.1 °F 42% 30.30 in 10.0 mi SSW 6.9 mph - N/A   Clear
3:53 PM 45.0 °F 43.5 °F 24.1 °F 44% 30.31 in 10.0 mi SSW 3.5 mph - N/A   Clear
4:53 PM 39.9 °F - 24.1 °F 53% 30.31 in 10.0 mi Calm Calm - N/A   Clear
5:53 PM 35.1 °F - 25.0 °F 67% 30.33 in 10.0 mi Calm Calm - N/A   Clear
7:53 PM 41.0 °F 37.1 °F 26.1 °F 55% 30.36 in 10.0 mi SSW 5.8 mph - N/A   Clear
8:53 PM 33.1 °F - 25.0 °F 72% 30.35 in 10.0 mi Calm Calm - N/A   Clear
9:53 PM 28.9 °F - 23.0 °F 78% 30.36 in 9.0 mi Calm Calm - N/A   Clear
10:53 PM 28.0 °F - 23.0 °F 81% 30.38 in 6.0 mi Calm Calm - N/A   Haze